CST,Max TemperatureF,Mean TemperatureF,Min TemperatureF,Max Dew PointF,MeanDew PointF,Min DewpointF,Max Humidity, Mean Humidity, Min Humidity, Max Sea Level PressureIn, Mean Sea Level PressureIn, Min Sea Level PressureIn, Max VisibilityMiles, Mean VisibilityMiles, Min VisibilityMiles, Max Wind SpeedMPH, Mean Wind SpeedMPH, Max Gust SpeedMPH,PrecipitationIn, CloudCover, Events, WindDirDegrees
2011-11-1,55,48,41,45,39,34,87,73,47,30.09,30.02,29.94,10,9,7,18,7,24,0.00,4,,208
2011-11-2,48,44,39,45,42,37,100,89,81,30.14,30.06,29.96,10,8,5,15,5,24,0.17,8,,358
2011-11-3,46,37,28,37,33,28,100,81,53,30.25,30.19,30.14,10,10,4,12,7,,0.02,0,,15
2011-11-4,51,37,24,37,28,21,100,75,37,30.35,30.30,30.26,10,9,6,12,2,,0.00,0,,197
2011-11-5,51,45,39,41,37,30,87,73,47,30.26,30.15,29.99,10,10,10,18,10,26,0.00,0,,193
2011-11-6,57,52,46,48,42,37,82,70,62,29.99,29.88,29.80,10,10,9,23,12,33,0.00,2,,206
2011-11-7,57,48,39,34,24,16,65,43,20,30.22,30.11,29.99,10,10,10,16,8,30,0.00,0,,256
2011-11-8,42,40,37,41,34,25,93,77,49,30.21,30.15,30.08,10,10,8,13,4,16,0.01,8,,26
2011-11-9,39,36,33,37,33,30,100,91,81,30.07,29.78,29.53,10,7,1,21,12,31,0.66,8,,356
2011-11-10,39,34,30,32,29,27,93,82,65,29.91,29.83,29.74,10,10,5,12,6,17,0.00,6,,286
2011-11-11,39,34,28,28,25,19,86,68,56,29.91,29.80,29.62,10,10,10,16,7,23,0.00,5,,248
2011-11-12,51,42,32,43,34,27,93,74,50,29.69,29.60,29.42,10,10,8,13,7,20,0.00,1,,209
2011-11-13,53,48,44,48,44,39,100,83,71,29.41,29.30,29.21,10,9,2,18,10,23,0.00,3,,221
2011-11-14,51,43,35,37,34,30,93,69,50,29.61,29.51,29.45,10,10,7,16,8,25,0.00,3,,241
2011-11-15,48,40,32,37,30,19,93,69,45,29.73,29.65,29.60,10,10,9,13,6,21,0.01,2,,241
2011-11-16,37,32,28,21,17,9,69,53,33,30.00,29.89,29.74,10,10,10,15,8,23,0.00,3,,273
2011-11-17,33,28,23,18,13,9,69,53,38,30.10,30.02,29.98,10,10,10,10,6,20,0.00,5,,280
2011-11-18,42,33,24,30,22,12,69,55,42,30.10,29.86,29.74,10,10,10,22,9,30,0.00,3,,216
2011-11-19,42,38,33,34,29,25,100,74,53,29.85,29.77,29.72,10,8,2,16,7,18,0.05,6,,318
2011-11-20,33,30,26,32,22,18,93,74,64,30.38,30.23,29.90,10,10,5,16,10,23,0.00,8,,351
2011-11-21,35,30,24,28,23,18,93,78,65,30.40,30.34,30.29,10,10,9,12,3,,0.00,7,,313
2011-11-22,41,34,28,36,31,25,100,84,70,30.32,30.15,30.03,10,10,9,12,5,,0.00,5,,63
2011-11-23,39,32,26,34,30,23,100,89,75,30.13,30.08,30.04,10,6,3,12,5,17,0.00,3,,266
2011-11-24,44,40,35,41,37,34,93,87,76,30.06,29.98,29.87,6,4,3,20,10,29,0.00,7,,235
2011-11-25,53,48,42,43,41,37,87,82,67,29.85,29.80,29.76,10,9,4,12,8,18,0.00,4,,216
2011-11-26,50,46,39,48,45,37,100,93,82,29.83,29.76,29.69,10,5,2,13,6,20,0.15,7,,223
2011-11-27,39,34,30,37,27,21,93,78,69,30.13,29.97,29.80,10,10,10,17,9,26,0.07,7,,345
2011-11-28,32,29,26,27,23,21,100,79,69,30.17,30.11,30.05,10,10,7,10,4,,0.00,5,,259
2011-11-29,37,32,26,28,22,18,93,70,48,30.16,30.11,30.03,10,10,10,22,10,30,0.00,1,,5
2011-11-30,42,30,17,30,18,14,93,64,34,30.08,29.98,29.93,10,10,2,12,5,16,0.00,3,,274